Olathe, KS

3:25 AM CDT on May 25, 2017 (GMT -0500)
Johnson County Executive

Weather History for KOJC - December, 2013

Change the Weather History Date:

Sunday, December 29, 2013

  Actual Average Record
Temperature  
Mean Temperature 25 °F 30 °F  
Max Temperature 39 °F 39 °F 66 °F (1984)
Min Temperature 10 °F 21 °F -8 °F (1983)
Degree Days  
Heating Degree Days 40 35  
Month to date heating degree days 1027 941  
Since 1 July heating degree days 2087 1896  
Cooling Degree Days 0 0  
Month to date cooling degree days 0 0  
Year to date cooling degree days 1360 1349  
Moisture  
Dew Point 6 °F    
Average Humidity 59    
Maximum Humidity 78    
Minimum Humidity 40    
Precipitation  
Precipitation T in 0.05 in 0.78 in (1984)
Month to date precipitation 0.35 1.53  
Year to date precipitation 36.54 39.93  
Sea Level Pressure  
Sea Level Pressure 30.24 in    
Wind  
Wind Speed 14 mph (NNW)    
Max Wind Speed 24 mph    
Max Gust Speed 32 mph    
Visibility 10 miles    
Events      
T = Trace of Precipitation, MM = Missing Value Source: NWS Daily Summary

Daily Weather History Graph

Daily Weather History Graph

Search for Another Location

Airport or City:

Trip Planner

Search our weather history database for the weather conditions in past years. The results will help you decide how hot, cold, wet, or windy it might be!

Date:

Astronomy

Dec. 29, 2013 Rise Set
Actual Time 7:36 AM CST 5:05 PM CST
Civil Twilight 7:07 AM CST 5:35 PM CST
Nautical Twilight 6:33 AM CST 6:08 PM CST
Astronomical Twilight 6:01 AM CST 6:41 PM CST
Moon 4:22 AM CST (12/29) 2:43 PM CST (12/29)
Length of Visible Light 10h 28m
Length of Day
9h 28m
Waning Crescent, 11% of the Moon is Illuminated
Dec 29
Waning Crescent
Jan 1
New
Jan 7
First Quarter
Jan 15
Full
Jan 23
Last Quarter

Hourly Weather History & Observations

Time (CST) Temp. Windchill Dew Point Humidity Pressure Visibility Wind Dir Wind Speed Gust Speed Precip Events Conditions
12:53 AM 36.0 °F 26.7 °F 28.0 °F 73% 29.96 in 10.0 mi North 15.0 mph 23.0 mph N/A   Clear
1:25 AM 33.1 °F 21.5 °F 26.1 °F 75% 29.96 in 10.0 mi NNW 19.6 mph 31.1 mph N/A   Mostly Cloudy
1:53 AM 32.0 °F 21.6 °F 26.1 °F 79% 29.99 in 9.0 mi North 15.0 mph 27.6 mph N/A   Overcast
2:53 AM 28.0 °F 16.5 °F 21.9 °F 78% 30.03 in 9.0 mi NNW 15.0 mph 26.5 mph N/A   Overcast
3:53 AM 24.1 °F 9.8 °F 17.1 °F 75% 30.07 in 10.0 mi North 19.6 mph 29.9 mph N/A   Overcast
4:53 AM 19.9 °F 5.2 °F 12.9 °F 74% 30.11 in 10.0 mi North 17.3 mph 28.8 mph N/A   Overcast
5:53 AM 18.0 °F 1.3 °F 10.9 °F 74% 30.14 in 10.0 mi North 20.7 mph 27.6 mph N/A   Overcast
6:53 AM 16.0 °F 1.1 °F 9.0 °F 74% 30.18 in 10.0 mi North 15.0 mph 26.5 mph N/A   Overcast
7:53 AM 15.1 °F -1.1 °F 7.0 °F 70% 30.22 in 10.0 mi NNW 17.3 mph 26.5 mph 0.00 in   Overcast
8:53 AM 15.1 °F -1.1 °F 7.0 °F 70% 30.26 in 8.0 mi NNW 17.3 mph 27.6 mph N/A   Overcast
9:53 AM 15.1 °F -2.0 °F 7.0 °F 70% 30.28 in 9.0 mi NNW 19.6 mph 27.6 mph N/A   Overcast
10:53 AM 15.1 °F -1.1 °F 6.1 °F 68% 30.30 in 10.0 mi North 17.3 mph 26.5 mph 0.00 in   Overcast
11:53 AM 15.1 °F -1.1 °F 3.9 °F 61% 30.30 in 10.0 mi North 17.3 mph 25.3 mph N/A   Overcast
12:46 PM 17.1 °F 3.0 °F 5.0 °F 59% 30.24 in 10.0 mi North 13.8 mph 19.6 mph N/A   Scattered Clouds
12:53 PM 18.0 °F 6.1 °F 5.0 °F 57% 30.28 in 10.0 mi NNW 10.4 mph 19.6 mph N/A   Partly Cloudy
1:53 PM 19.0 °F 4.0 °F 3.9 °F 52% 30.29 in 10.0 mi NNW 17.3 mph - N/A   Partly Cloudy
2:53 PM 17.1 °F 3.0 °F 1.0 °F 50% 30.30 in 10.0 mi NNW 13.8 mph - N/A   Partly Cloudy
3:53 PM 16.0 °F 1.1 °F -4.0 °F 41% 30.33 in 10.0 mi North 15.0 mph - N/A   Clear
4:53 PM 16.0 °F 0.6 °F -5.1 °F 39% 30.35 in 10.0 mi NNW 16.1 mph 20.7 mph N/A   Clear
5:53 PM 15.1 °F 1.8 °F -6.0 °F 39% 30.36 in 10.0 mi North 11.5 mph - N/A   Clear
6:53 PM 14.0 °F 2.9 °F -2.9 °F 47% 30.37 in 10.0 mi NNW 8.1 mph - N/A   Clear
7:53 PM 12.9 °F 3.8 °F -5.1 °F 45% 30.37 in 10.0 mi NNW 5.8 mph - N/A   Clear
8:53 PM 12.0 °F 1.5 °F -2.9 °F 51% 30.38 in 10.0 mi NNW 6.9 mph - N/A   Clear
9:53 PM 10.9 °F 2.9 °F -2.9 °F 54% 30.37 in 10.0 mi North 4.6 mph - N/A   Clear
10:53 PM 10.9 °F 4.7 °F -2.9 °F 54% 30.36 in 10.0 mi North 3.5 mph - N/A   Clear
11:53 PM 10.0 °F 1.8 °F -2.9 °F 56% 30.35 in 10.0 mi North 4.6 mph - N/A   Clear